Probability
10 5 1 0 0 0 0 0 0 0 0 0 0 0 0 0 0 0 0 0 0 0 0 0 0 0 0 0 0 1 2 3 4 2 1 1 1 1 0 0 0 0 0 0 0 0 0 1 1
5 3 1 0 0 0 0 0 0 0 0 0 0 0 0 0 0 0 0 0 0 0 0 0 0 0 0 0 0 0 1 2 2 1 0 0 0 0 0 0 0 0 0 0 0 0 0 0 1
2 2 1 1 0 0 0 0 0 0 0 0 0 0 0 1 1 1 0 0 0 0 0 0 0 0 0 0 0 0 0 1 1 0 0 0 0 0 1 1 0 0 0 0 0 0 0 0 0
2 2 2 1 1 0 0 0 0 0 0 0 0 0 0 1 3 2 1 1 1 1 0 1 1 1 0 0 0 0 0 0 0 1 1 1 0 1 2 2 1 1 1 1 0 0 0 0 0
3 3 2 1 1 0 0 0 1 1 0 0 0 0 1 3 5 4 2 2 2 1 0 1 2 1 0 0 0 0 0 0 0 1 2 1 0 2 3 3 2 2 1 1 0 0 0 0 0
3 3 1 1 0 1 1 1 1 0 0 0 0 0 1 4 7 6 4 3 2 1 0 1 1 1 0 0 0 0 0 0 1 2 3 2 1 3 4 3 2 2 1 1 0 0 0 0 0
3 2 1 0 0 1 2 2 1 1 1 0 0 0 1 5 7 6 4 2 1 1 0 0 0 0 0 1 0 0 0 0 1 2 4 4 3 3 2 1 1 1 1 1 0 0 0 0 0
2 1 0 0 0 1 2 2 2 2 2 1 0 0 2 6 7 6 4 2 0 0 0 0 0 0 0 1 1 0 0 0 0 2 5 5 3 1 1 0 0 0 0 0 0 0 0 0 0
1 0 0 0 0 0 1 3 4 4 3 1 0 1 3 8 10 9 6 3 1 0 0 0 0 0 0 1 1 1 0 0 0 2 4 4 2 0 0 0 0 0 0 0 0 0 0 0 0
0 0 0 0 0 0 2 5 6 5 3 1 0 1 4 8 12 12 9 6 3 1 0 0 0 0 0 1 2 2 1 0 0 1 1 1 0 0 0 0 0 0 0 0 0 0 0 0 0
0 0 0 0 0 0 2 5 7 5 2 1 1 1 3 6 11 13 10 8 6 3 2 1 1 1 0 1 3 3 2 1 0 0 0 0 0 0 0 0 0 0 0 0 0 0 0 0 0
0 0 0 0 0 0 1 3 5 5 3 3 2 2 2 5 8 10 9 9 9 7 4 2 2 2 2 2 3 3 3 2 1 0 0 0 0 0 0 0 0 0 0 0 0 0 0 0 0
0 0 0 0 0 0 1 2 4 4 3 4 4 3 3 4 6 8 10 11 11 9 5 4 4 3 3 3 2 2 3 3 2 1 1 0 0 0 0 0 0 0 0 0 0 0 0 0 0
0 0 0 0 0 0 1 2 3 4 4 4 4 3 4 5 6 9 11 12 11 9 8 7 7 5 4 3 1 1 2 2 1 0 0 0 0 0 0 0 0 0 0 0 0 0 0 0 0
0 0 0 0 0 0 1 3 4 5 4 3 2 3 5 7 8 10 12 13 12 10 10 12 10 6 4 3 1 1 1 1 0 0 0 0 0 0 0 0 0 0 0 0 0 0 0 0 0
0 0 0 0 0 0 1 3 5 5 3 2 1 3 6 8 8 9 11 15 15 13 12 13 11 8 5 4 3 1 1 0 0 0 0 0 0 0 0 0 0 0 0 0 0 0 0 0 0
0 0 0 0 0 0 1 3 5 4 2 1 2 5 8 8 7 8 12 17 19 16 13 12 11 9 8 7 4 2 1 1 0 0 0 0 0 0 0 0 0 0 0 0 0 0 0 0 0
0 0 0 0 0 1 2 4 5 3 1 0 2 6 9 9 8 10 13 17 19 17 13 11 11 10 9 8 5 2 2 2 1 0 0 0 0 0 0 0 0 0 0 0 0 0 0 0 0
0 0 0 0 0 1 2 4 4 2 0 0 2 6 9 9 10 12 15 17 18 17 14 11 11 11 10 10 7 4 2 2 1 0 0 0 0 0 0 0 0 0 0 0 0 0 0 0 0
0 0 0 0 0 1 2 3 3 1 1 2 3 7 9 10 12 14 19 22 21 19 17 15 14 13 12 11 9 5 1 1 1 0 0 0 0 0 0 0 0 0 0 0 0 0 0 0 0
0 0 0 0 0 1 2 3 2 1 2 3 5 8 11 12 13 17 23 29 29 25 23 22 21 17 12 9 7 5 2 1 1 0 0 0 1 1 0 0 0 0 0 0 0 0 0 0 0
0 0 0 0 0 0 1 2 1 1 2 3 4 9 14 15 15 19 26 33 35 32 30 28 25 19 12 8 7 6 4 2 1 0 0 0 1 1 0 0 0 0 0 0 0 0 0 0 0
0 0 0 0 0 0 0 0 1 3 3 3 4 9 15 18 19 23 27 32 37 38 34 30 26 20 15 11 8 6 3 2 1 0 0 0 0 0 0 0 1 2 1 0 0 0 0 0 0
0 0 0 0 0 0 0 0 1 3 3 3 5 10 15 19 23 27 27 30 37 40 37 32 28 25 21 18 13 8 5 3 1 1 0 0 0 0 0 1 2 3 2 1 0 0 0 0 0
0 0 0 0 0 0 0 0 1 3 3 5 10 14 15 19 25 30 30 32 38 41 40 37 35 32 29 25 20 14 9 7 5 3 3 2 2 1 0 1 3 3 2 1 0 1 1 1 1
0 0 0 0 0 0 0 1 2 3 5 8 15 21 21 23 28 32 33 35 40 44 44 43 42 39 35 31 26 20 15 10 8 7 7 5 4 2 2 2 3 4 4 3 3 4 3 2 2
0 0 0 0 0 0 1 2 3 4 7 12 22 28 27 26 31 34 35 37 42 48 49 49 48 45 40 36 30 24 20 15 12 10 8 7 5 4 5 5 5 7 8 8 7 6 4 3 3
0 0 0 0 0 0 1 2 3 4 8 16 26 32 30 29 33 36 37 39 44 50 53 53 52 49 45 41 34 27 24 22 18 14 11 9 6 7 9 9 9 10 12 11 9 6 4 3 2
0 0 0 0 0 0 1 2 4 6 10 18 28 33 33 32 34 36 40 43 46 50 54 53 52 52 50 45 38 31 27 26 23 21 18 14 11 13 14 14 13 13 13 12 9 6 4 3 2
0 0 0 0 0 0 1 2 4 7 12 20 28 32 33 34 35 37 41 46 48 50 53 52 52 54 53 47 40 34 29 26 25 24 22 18 15 17 19 19 17 15 14 13 9 6 5 3 3
Wind_Speed
12 8 4 2 2 4 4 4 7 9 8 8 10 10 9 7 5 6 3 8 9 7 5 8 10 11 12 13 13 14 14 15 15 15 15 15 15 15 15 15 15 15 15 15 14 14 13 13 12
8 7 2 2 4 3 3 6 10 11 11 12 12 12 10 8 8 10 6 8 9 7 5 7 11 11 12 13 14 14 14 14 14 14 14 14 14 14 14 14 14 14 14 14 13 13 13 12 11
8 5 1 2 2 4 5 7 11 12 11 10 8 7 7 7 9 7 8 12 9 6 5 8 13 12 13 13 13 13 13 13 13 13 13 14 14 14 14 13 14 14 13 13 13 12 11 11 10
4 2 2 3 2 3 8 9 12 14 10 9 10 8 6 7 7 10 14 13 10 6 5 9 14 13 13 13 13 13 13 13 12 12 13 13 13 13 13 13 13 12 12 12 11 11 10 10 9
1 2 3 3 2 5 9 12 12 11 7 10 11 9 6 6 14 16 14 13 11 7 5 7 14 13 13 13 12 12 12 12 12 12 13 13 13 13 13 13 12 12 12 11 11 10 9 8 7
2 3 4 3 4 6 7 10 14 15 14 12 11 9 4 8 14 14 13 11 10 9 7 7 12 13 13 12 12 12 12 12 12 12 13 12 12 12 11 12 12 12 12 11 10 9 8 7 6
3 3 3 4 6 7 7 9 12 13 13 9 9 8 5 7 11 13 12 11 9 9 7 5 6 9 12 12 11 11 11 11 11 12 12 12 11 11 11 11 10 11 11 11 10 8 7 6 4
4 4 2 3 6 5 6 7 10 14 10 12 8 8 7 9 11 12 11 10 9 7 6 5 5 4 5 6 10 11 11 11 11 11 11 11 11 10 10 9 9 10 10 10 9 8 6 4 3
4 5 3 5 6 5 7 11 8 9 11 7 5 8 11 14 13 12 10 8 7 7 5 5 5 5 5 5 8 8 10 9 9 8 10 9 4 4 5 7 9 9 9 9 8 7 6 4 2
5 5 6 5 6 7 9 13 9 8 11 9 10 10 14 13 13 13 12 10 8 8 7 6 6 6 5 5 4 3 3 4 4 3 4 3 3 3 4 7 9 9 9 8 7 6 5 2 0
4 6 4 4 6 8 9 9 7 12 9 13 16 15 13 13 11 11 11 11 10 9 8 6 7 7 5 3 4 2 2 2 3 3 4 3 3 2 2 2 3 4 5 3 3 3 1 1 1
3 3 5 5 6 9 8 7 7 9 11 15 16 16 14 13 11 11 11 10 9 9 8 6 7 6 6 5 4 3 3 2 3 3 4 3 2 2 2 2 2 2 1 2 2 1 2 1 2
3 2 3 5 6 7 8 9 8 8 13 15 15 14 13 12 10 9 10 10 9 9 8 7 7 7 6 5 4 4 4 4 4 3 4 4 4 4 3 2 2 2 2 2 2 2 2 2 2
2 1 3 5 6 6 9 7 7 10 15 15 14 12 12 12 11 9 10 10 9 9 8 7 7 7 6 5 4 4 4 4 3 3 5 5 4 4 4 3 3 3 3 3 3 3 3 2 2
2 3 1 3 4 5 9 4 5 13 14 15 14 12 12 11 11 12 12 11 11 10 8 8 8 7 6 5 5 4 4 4 4 4 5 5 5 5 4 3 3 3 3 3 2 2 2 2 2
4 3 0 3 3 5 9 5 5 11 12 12 12 12 11 10 11 12 12 11 10 10 9 9 8 7 6 5 4 4 4 4 4 4 4 5 5 5 4 3 3 3 3 2 2 2 2 1 1
3 1 2 3 3 4 5 5 9 11 12 12 11 11 11 9 9 10 12 12 11 11 10 8 7 7 6 5 3 3 4 4 3 3 4 4 5 5 4 3 3 3 2 2 3 2 2 2 1
4 3 3 5 4 3 3 5 9 12 12 12 11 11 11 12 11 11 12 12 11 10 10 9 8 7 6 4 3 2 2 2 2 3 4 5 4 5 4 3 3 3 2 2 2 2 2 2 2
5 4 5 7 5 3 4 6 8 9 9 10 10 10 12 12 10 11 11 12 11 9 9 9 8 7 5 3 3 3 2 2 2 3 4 5 5 5 4 3 3 3 3 3 3 2 2 1 1
4 4 4 5 3 4 3 4 6 9 12 12 13 12 12 10 9 10 10 10 11 11 10 10 9 8 7 5 4 3 3 2 3 2 3 5 5 5 5 4 3 3 3 3 3 2 2 1 2
5 6 6 5 1 1 3 1 4 6 6 7 11 13 13 15 15 14 13 12 11 11 12 11 10 9 8 6 3 2 2 1 1 2 2 3 5 5 4 5 4 3 3 3 3 3 3 2 1
7 8 7 5 4 2 4 3 6 5 5 7 8 10 13 14 13 14 14 14 14 13 11 10 10 9 8 7 6 6 5 4 4 3 3 3 4 4 4 4 5 4 3 3 3 4 3 3 2
7 6 4 4 3 1 0 4 6 2 5 8 10 13 13 13 14 15 15 15 14 13 11 10 10 9 8 8 8 6 5 4 3 3 4 4 3 3 4 4 4 4 3 3 3 3 3 3 3
2 3 5 6 5 1 5 4 6 6 10 10 10 12 12 12 13 13 12 11 10 11 10 10 10 9 9 8 8 8 7 6 5 4 4 4 3 2 4 4 4 4 3 4 4 3 3 3 3
3 6 4 4 4 6 4 2 8 9 10 12 12 12 12 12 12 12 11 12 12 12 11 10 11 9 9 9 8 8 8 7 7 6 5 4 3 3 4 4 4 3 4 4 3 3 3 3 3
4 10 9 6 5 5 3 4 8 7 6 6 8 8 8 10 10 11 12 13 13 13 12 11 11 10 10 9 8 7 7 5 5 6 5 5 4 4 4 4 4 4 4 4 3 3 3 2 3
4 4 10 9 3 1 5 5 6 3 1 4 5 6 7 8 8 9 11 11 12 12 12 12 11 10 10 9 8 6 6 6 6 5 5 4 4 4 5 5 4 4 4 4 3 2 3 2 2
5 6 6 6 5 2 4 3 4 4 3 3 6 7 6 6 7 7 9 10 10 10 10 10 10 11 9 9 8 7 6 6 5 5 5 5 5 4 4 4 5 4 4 4 4 3 2 3 3
2 2 4 5 6 7 3 6 6 7 6 6 7 7 6 7 7 7 8 9 8 8 8 8 9 8 8 8 7 6 6 5 5 5 6 5 5 5 5 5 5 4 4 4 4 4 3 4 3
4 3 6 4 4 5 5 7 5 4 5 6 7 7 6 7 5 5 6 7 7 7 6 7 7 8 8 8 7 7 6 6 5 5 6 5 5 5 5 5 5 5 4 4 4 4 4 4 4
Wind_Direction
155 153 156 154 54 51 83 95 98 84 68 68 76 82 82 68 96 127 149 140 131 130 127 123 119 115 111 110 112 111 109 109 113 116 118 119 120 121 121 122 125 126 126 125 123 122 122 123 122
158 160 165 71 79 80 78 101 97 101 120 109 87 86 80 73 89 113 128 139 134 133 128 124 122 118 114 111 112 113 112 112 114 120 122 123 124 125 126 128 129 129 129 128 127 126 126 126 126
168 178 132 72 99 135 124 113 109 106 110 101 93 73 75 105 116 129 146 143 134 128 125 131 124 121 117 114 115 115 115 115 116 120 126 128 128 128 129 129 131 131 132 132 132 130 129 129 127
156 134 51 72 110 149 128 128 119 111 90 85 96 78 74 110 124 134 141 139 131 126 126 135 131 129 125 123 121 121 119 119 119 123 127 131 132 132 131 131 132 133 133 134 133 132 132 132 131
125 103 60 52 108 112 119 125 118 107 95 97 98 98 82 88 117 131 139 139 135 133 132 137 135 134 131 129 127 126 125 123 123 127 130 132 133 134 134 134 135 136 136 137 138 139 138 138 139
97 79 76 93 100 99 112 120 109 106 114 111 106 106 101 122 127 138 141 142 143 141 138 139 140 139 136 134 133 133 131 128 126 130 133 135 135 136 138 138 139 139 140 140 140 142 143 144 140
126 106 136 132 110 111 124 121 117 125 131 129 124 106 118 135 141 143 140 142 142 140 138 139 143 143 142 140 138 137 135 133 130 130 132 135 139 140 141 141 141 141 142 143 145 148 149 148 146
161 106 91 112 114 123 130 111 124 127 119 132 128 125 149 160 142 136 133 134 137 139 142 143 143 140 142 145 146 144 143 141 138 136 135 135 139 140 143 144 145 145 146 149 151 154 155 154 156
126 93 144 162 138 147 130 110 111 112 119 128 110 130 149 148 136 130 127 126 139 146 151 151 153 154 152 157 157 150 148 147 145 140 140 134 124 128 139 150 151 150 154 157 160 162 165 169 174
111 134 184 184 152 152 140 131 127 112 113 108 110 120 136 139 138 141 145 149 155 159 167 163 163 164 167 168 148 144 146 147 146 146 138 127 132 148 150 159 163 164 165 167 171 176 180 178 173
128 155 166 142 138 140 135 136 124 126 134 146 145 146 146 144 146 149 153 157 162 164 167 168 169 167 169 157 148 149 145 152 157 159 150 138 135 144 142 144 163 169 171 168 173 178 181 177 190
116 155 148 152 131 129 140 141 133 142 159 155 151 150 151 154 158 160 158 157 157 159 163 162 160 158 162 153 156 159 165 168 166 167 161 149 146 155 158 159 160 168 170 173 176 190 203 207 219
117 154 152 148 124 132 133 135 132 135 144 148 151 153 156 161 164 162 157 155 152 153 158 161 156 155 154 150 162 164 174 173 175 168 167 165 162 170 173 175 174 185 182 181 187 203 213 225 232
189 154 143 129 117 120 118 120 111 144 146 151 157 162 162 161 159 155 153 155 157 158 159 158 154 155 152 154 158 161 171 172 169 169 171 170 168 167 168 174 180 191 192 190 189 201 197 205 208
82 68 70 135 130 138 113 99 140 153 154 158 164 168 165 164 160 161 164 163 164 162 158 158 157 155 155 159 162 157 170 170 172 178 177 175 172 168 166 169 182 193 192 187 182 191 179 189 198
46 57 77 256 146 148 117 166 180 158 161 167 172 170 166 169 168 167 164 164 163 160 161 165 162 158 160 159 154 154 167 173 178 178 181 183 177 172 164 172 192 190 179 168 170 173 168 197 204
34 71 247 257 204 159 126 180 182 171 167 176 178 174 168 170 172 169 166 164 165 164 163 165 160 162 166 161 151 147 154 175 180 173 176 182 178 172 167 177 193 182 174 177 188 172 170 186 208
237 225 240 234 225 161 162 205 187 180 175 182 181 174 172 176 179 175 169 166 166 165 163 163 162 167 163 151 138 130 143 173 176 173 179 175 175 172 165 178 191 173 165 178 180 174 173 177 193
206 203 236 241 216 165 194 188 197 184 183 186 182 179 180 185 179 170 170 167 164 165 165 167 166 171 161 153 155 157 174 180 178 186 182 180 180 174 171 177 178 170 172 182 178 166 167 184 153
212 211 243 269 224 159 175 198 209 192 191 188 182 183 180 177 172 173 173 171 172 174 174 171 173 175 173 172 168 168 167 183 185 186 185 186 183 182 181 173 177 176 168 174 180 166 157 197 157
249 205 207 212 243 74 106 354 232 222 202 192 186 183 179 178 179 180 179 181 178 180 180 178 178 177 177 170 154 141 114 101 151 191 199 199 189 191 188 179 176 176 171 181 189 177 168 186 208
251 235 204 190 140 225 148 188 256 227 210 196 191 187 187 183 180 182 182 182 185 186 182 176 177 179 179 171 169 167 173 187 202 195 196 200 194 191 186 177 176 177 177 184 196 183 174 168 193
234 231 188 175 143 78 43 148 260 214 212 210 196 196 191 188 182 185 187 186 187 184 180 178 175 179 180 179 179 180 186 193 189 182 187 197 200 195 188 181 178 182 186 191 193 181 181 179 184
233 52 43 54 64 357 240 167 251 219 208 209 201 195 190 188 186 185 189 183 182 180 177 175 176 183 182 183 184 185 187 185 179 184 189 198 199 202 202 188 183 187 189 193 193 191 187 194 194
79 89 42 4 3 257 256 181 240 237 211 195 193 186 184 184 183 180 183 183 180 179 179 177 178 184 185 185 189 192 191 184 186 187 192 194 194 203 210 196 188 189 196 196 188 187 198 197 196
205 140 157 185 212 268 307 233 251 250 220 188 180 170 176 181 183 180 182 181 180 179 178 179 183 187 187 188 192 194 188 184 190 192 188 193 197 204 201 195 193 195 193 197 187 190 205 198 204
196 187 166 140 161 227 276 274 305 324 153 153 147 142 168 180 180 181 180 180 177 176 177 180 184 187 189 188 187 189 190 189 192 192 190 194 198 202 199 196 195 199 196 192 179 188 201 194 202
177 167 103 115 148 224 277 269 241 245 201 153 138 146 173 179 177 179 176 175 175 177 176 179 183 186 185 183 186 193 194 193 191 186 193 196 199 201 193 196 193 191 193 191 185 190 196 197 212
355 58 109 127 154 158 211 262 236 199 184 162 156 157 152 157 169 178 178 172 167 165 167 176 183 179 182 185 186 187 189 192 191 195 198 196 196 191 191 196 193 192 195 191 189 202 197 205 218
178 176 139 153 220 164 164 255 277 182 164 150 143 142 136 137 145 145 154 150 146 154 162 174 180 183 187 184 183 187 187 187 195 202 202 195 194 195 195 191 190 199 204 201 196 214 214 212 220